Location: Mountain Grove
(34.0887°N, 86.6172°W)
Time: 22:00:01
(UTC+00:00)

NOSS 3-2 (C) - Pass Details

Date: 14 July 2020
Orbit: 801 x 1412 km, 63.4° (Epoch: 05 August)

Event Time Altitude Azimuth Distance (km) Brightness Sun altitude
Exits shadow 09:19:06 20° 201° (SSW) 1,807 4.4 -15.8°
Maximum altitude 09:22:58 76° 118° (ESE) 889 3.3 -15.1°
Drops below altitude 10° 09:29:04 10° 34° (NNE) 2,667 7.0 -14.2°
Sets 09:31:47 0° 33° (NNE) 3,704 8.0 -13.7°
